sat.trackr.live / text

‹ back to catalog

ONEWEB-0172

NORAD 48071 · 2021-025AF

PAYLOAD ACTIVE UNKNOWN

§ Identity

Operator
Country
UK
Launch date
2021-03-25
Launch site
VOSTO
Launch vehicle
Mass (kg)
RCS (m²)

Purposes: comms

External: N2YO · Heavens-Above · Gunter

§ Orbital elements

Epoch: 2026-09-09T15:09:02.605824Z

Period
109.63 min
Inclination
87.8942°
Eccentricity
0.0001846
Mean motion
13.13470484 rev/d
Perigee alt
1,208.4 km
Apogee alt
1,211.2 km
Semi-major
7,587.9 km
B*
-7.8969e-4
RAAN
303.4265°
Arg perigee
91.0037°
Mean anomaly
269.1304°
Rev number
26,559

§ Raw data

ONEWEB-01721 48071U 21025AF  26252.63128016 -.00000276  00000+0 -78969-3 0  99922 48071  87.8942 303.4265 0001846  91.0037 269.1304 13.13470484265599

JSON: /api/v1/satellites/48071 · /tle

For live sub-satellite position, see the globe view (requires WebGL).

§ Visibility from observer

Set your observer location to see the next 7 days of passes ≥ 10°. The values pass through the URL so the page stays shareable.

No JS? Fill the form by hand. The geolocation button needs JavaScript.